Long Beach, CA

5:18 AM PDT on August 22, 2017 (GMT -0700)
Long Beach

Weather History for KLGB - October, 2013

Change the Weather History Date:

Wednesday, October 2, 2013

  Actual Average Record
Temperature  
Mean Temperature 69 °F 70 °F  
Max Temperature 73 °F 79 °F 98 °F (1958)
Min Temperature 65 °F 61 °F 52 °F (1971)
Degree Days  
Heating Degree Days 0 0  
Month to date heating degree days 0 0  
Since 1 July heating degree days 0 1  
Cooling Degree Days 4 5  
Month to date cooling degree days 8 10  
Year to date cooling degree days 1102 1009  
Growing Degree Days 18 (Base 50)    
Moisture  
Dew Point 56 °F    
Average Humidity 63    
Maximum Humidity 73    
Minimum Humidity 53    
Precipitation  
Precipitation 0.00 in 0.01 in 0.36 in (1986)
Month to date precipitation 0.00 0.02  
Year to date precipitation 2.94 8.70  
Since 1 July precipitation 0.07  
Sea Level Pressure  
Sea Level Pressure 29.92 in    
Wind  
Wind Speed 6 mph (South)    
Max Wind Speed 23 mph    
Max Gust Speed -    
Visibility 10 miles    
Events      
T = Trace of Precipitation, MM = Missing Value Source: NWS Daily Summary

Daily Weather History Graph

Daily Weather History Graph

Search for Another Location

Airport or City:

Trip Planner

Search our weather history database for the weather conditions in past years. The results will help you decide how hot, cold, wet, or windy it might be!

Date:

Astronomy

Oct. 02, 2013 Rise Set
Actual Time 6:47 AM PDT 6:35 PM PDT
Civil Twilight 6:23 AM PDT 6:59 PM PDT
Nautical Twilight 5:54 AM PDT 7:28 PM PDT
Astronomical Twilight 5:25 AM PDT 7:57 PM PDT
Moon 4:30 AM PDT (10/2) 5:09 PM PDT (10/2)
Length of Visible Light 12h 36m
Length of Day
11h 47m
Waning Crescent, 6% of the Moon is Illuminated
Oct 2
Waning Crescent
Oct 4
New
Oct 11
First Quarter
Oct 18
Full
Oct 26
Last Quarter

Hourly Weather History & Observations

Time (PDT) Temp. Dew Point Humidity Pressure Visibility Wind Dir Wind Speed Gust Speed Precip Events Conditions
12:53 AM 64.9 °F 55.9 °F 73% 29.93 in 10.0 mi SE 9.2 mph - N/A   Overcast
1:53 AM 64.9 °F 55.9 °F 73% 29.93 in 10.0 mi ESE 6.9 mph - N/A   Overcast
2:53 AM 64.9 °F 55.0 °F 70% 29.92 in 10.0 mi ESE 5.8 mph - N/A   Overcast
3:53 AM 64.9 °F 55.0 °F 70% 29.91 in 10.0 mi ESE 4.6 mph - N/A   Overcast
4:53 AM 64.9 °F 55.0 °F 70% 29.93 in 10.0 mi East 3.5 mph - N/A   Overcast
5:53 AM 66.0 °F 55.0 °F 68% 29.93 in 10.0 mi East 6.9 mph - N/A   Overcast
6:53 AM 66.0 °F 55.0 °F 68% 29.93 in 10.0 mi ESE 4.6 mph - N/A   Overcast
7:53 AM 66.0 °F 55.0 °F 68% 29.95 in 10.0 mi South 4.6 mph - N/A   Overcast
8:53 AM 66.0 °F 55.0 °F 68% 29.97 in 10.0 mi ENE 5.8 mph - N/A   Overcast
9:53 AM 68.0 °F 55.0 °F 63% 29.97 in 10.0 mi ENE 5.8 mph - N/A   Overcast
10:53 AM 68.0 °F 54.0 °F 61% 29.97 in 10.0 mi Calm Calm - N/A   Overcast
11:53 AM 69.1 °F 55.0 °F 61% 29.96 in 10.0 mi Variable 3.5 mph - N/A   Overcast
12:53 PM 70.0 °F 55.0 °F 59% 29.94 in 10.0 mi South 4.6 mph - N/A   Overcast
1:41 PM 69.8 °F 55.4 °F 60% 29.91 in 10.0 mi SSW 8.1 mph - N/A   Scattered Clouds
1:53 PM 71.1 °F 55.9 °F 59% 29.91 in 10.0 mi SW 8.1 mph - N/A   Scattered Clouds
2:53 PM 73.0 °F 55.9 °F 55% 29.89 in 10.0 mi Variable 6.9 mph - N/A   Clear
3:53 PM 72.0 °F 55.9 °F 57% 29.88 in 10.0 mi South 6.9 mph - N/A   Clear
4:53 PM 72.0 °F 55.9 °F 57% 29.88 in 10.0 mi SSW 6.9 mph - N/A   Clear
5:53 PM 71.1 °F 55.9 °F 59% 29.88 in 10.0 mi West 6.9 mph - N/A   Clear
6:53 PM 68.0 °F 57.9 °F 70% 29.89 in 10.0 mi WNW 10.4 mph - N/A   Clear
7:04 PM 66.2 °F 57.2 °F 73% 29.89 in 10.0 mi WNW 9.2 mph - N/A   Mostly Cloudy
7:53 PM 66.9 °F 57.9 °F 73% 29.90 in 10.0 mi NW 8.1 mph - N/A   Mostly Cloudy
8:25 PM 66.2 °F 57.2 °F 73% 29.91 in 10.0 mi NW 8.1 mph - N/A   Overcast
8:53 PM 66.0 °F 57.9 °F 75% 29.91 in 10.0 mi NW 8.1 mph - N/A   Mostly Cloudy
9:53 PM 66.0 °F 57.9 °F 75% 29.93 in 10.0 mi WNW 5.8 mph - N/A   Mostly Cloudy
10:53 PM 66.0 °F 57.0 °F 73% 29.93 in 10.0 mi NW 4.6 mph - N/A   Overcast
11:53 PM 66.0 °F 57.0 °F 73% 29.92 in 10.0 mi NNW 3.5 mph - N/A   Overcast